Location: Unspecified
(0.0000°N, 0.0000°E)
Time: 22:39:00
(UTC+00:00)

deb r/b Ablestar - Visible Passes

Search period start: 10 April 2026 00:00
Search period end: 20 April 2026 00:00
Orbit: 782 x 879 km, 66.7° (Epoch: 9 April)

Date Brightness Start Highest point End Pass type
(mag) Time Alt. Az. Time Alt. Az. Time Alt. Az.
10 Apr ? 18:25:33 10° WNW 18:29:18 18° WSW 18:33:08 10° SSW visible
11 Apr ? 05:22:48 10° SSW 05:28:13 66° WNW 05:33:32 10° NNE visible
12 Apr ? 05:04:04 10° SSW 05:09:31 75° WNW 05:14:51 10° NNE visible
13 Apr ? 04:45:21 10° SSW 04:50:49 84° WNW 04:56:10 10° NNE visible
14 Apr ? 04:28:53 25° SSW 04:32:06 86° ESE 04:37:27 10° NNE visible
15 Apr ? 04:12:12 55° S 04:13:23 77° ESE 04:18:43 10° NNE visible
16 Apr ? 03:55:19 61° ENE 03:55:19 61° ENE 03:59:58 10° NNE visible
17 Apr ? 03:38:16 32° NE 03:38:16 32° NE 03:41:12 10° NNE visible
18 Apr ? 03:21:02 18° NE 03:21:02 18° NE 03:22:24 10° NE visible
